Content
SEND FEEDBACK

Daily
Averages
Monthly
Summary
Mauritania

NOUADHIBOU, MAURITANIA


Home > Africa > Mauritania
Elevation: 10 feet     Latitude: 20 56N     Longitude: 017 02W

WEATHER
 
SELECT A DAY
Number of Records: 118,144;   Date Range: 7/1/96 - 9/15/14
 
SHARE

PRINT THIS DATA

[ ← Previous Day ]
WEATHER ALMANAC - MAY 10, 2013
[ Next Day → ]
[ °C ]   °F
Weather ElementAverageHighLow
Temperature69.4 °F77 °F (9:00 am)66 °F (6:00 am)
Dewpoint60.7 °F63 °F (9:00 am)59 °F (2:00 am)
Humidity73.2 %78 % (12:00 am)52 % (9:00 am)
Barometer29.91 in29.98 in (12:00 am)29.83 in (6:00 pm)
Wind Speed16.6 mph21.9 mph (6:00 pm)
Weather ElementAverage
Visibility4.9 mi
Wind DirectionNW (317.5 °)

Weather ElementTotal
Precipitation---
Cooling Degree Days6.5 (Base 65)
Growing Degree Days21.5 (Base 50)
Averaged from 20 records on May 10, 2013
WEATHER CONDITIONS BREAKOUT
WIND DIRECTION BREAKOUT
WEATHER BY HOUR - MAY 10, 2013
[ °C ]   °F
Local TimeTemperatureDewpointHumidityBarometerVisibilityWind DirectionWind SpeedGust SpeedPrecipitationEventsConditions
12:00 AM69.8 °F62.6 °F78 %29.98 in5.0 miNNW (340°)18.4 mph
1:00 AM68.0 °F60.8 °F78 %29.95 in5.0 miNNW (340°)16.1 mph
2:00 AM68.0 °F59.0 °F73 %29.92 in5.0 miNNW (340°)16.1 mph
3:00 AM67.0 °F61.0 °F75 %29.94 in5.0 miNNW (340°)12.7 mph
3:00 AM68.0 °F59.0 °F73 %29.92 in5.0 miNNW (340°)16.1 mph
4:00 AM68.0 °F59.0 °F73 %29.89 in5.0 miNNW (340°)18.4 mph
5:00 AM66.2 °F59.0 °F78 %29.89 in5.0 miNNW (340°)15.0 mph
6:00 AM66.0 °F61.0 °F78 %29.92 in5.0 miNNW (340°)16.1 mph
6:00 AM66.2 °F59.0 °F78 %29.89 in5.0 miNNW (340°)16.1 mph
7:00 AM66.2 °F59.0 °F78 %29.89 in5.0 miNNW (340°)15.0 mph
8:00 AM69.8 °F60.8 °F73 %29.92 in5.0 miNNW (340°)17.3 mph
9:00 AM77.0 °F63.0 °F52 %29.91 in6.0 miNorth5.8 mph
9:00 AM73.4 °F60.8 °F65 %29.92 in5.0 miNNW (340°)18.4 mph
10:00 AM75.2 °F60.8 °F61 %29.95 in5.0 miNW (320°)12.7 mph
6:00 PM75.2 °F60.8 °F61 %29.83 in3.7 miNNW (330°)21.9 mphLow Drifting Sand
7:00 PM69.8 °F62.6 °F78 %29.83 in3.7 miNW (310°)19.6 mphLow Drifting Sand
8:00 PM69.8 °F62.6 °F78 %29.86 in3.7 miNNW (330°)19.6 mphLow Drifting Sand
9:00 PM68.0 °F60.8 °F78 %29.89 in5.0 miNW (320°)18.4 mph
10:00 PM68.0 °F60.8 °F78 %29.89 in5.0 miNNW (330°)18.4 mph
11:00 PM68.0 °F60.8 °F78 %29.92 in5.0 miNNW (330°)19.6 mph
Hourly data recorded from GQPP, located miles away from Nouadhibou, Mauritania







STORIES FROM OUR PARTNERS